Location: Aalen
(48.8330°N, 10.1000°E)
Time: 05:54:19
(UTC+02:00)

Transit 2A - Pass Details

Date: 07 August 2021
Orbit: 594 x 964 km, 66.7° (Epoch: 21 September)

Event Time Altitude Azimuth Distance (km) Brightness Sun altitude
Rises 12:29:23 0° 326° (NW) 3,157 8.8 55.5°
Reaches altitude 10° 12:32:13 10° 343° (NNW) 2,301 8.3 55.7°
Maximum altitude 12:36:15 21° 32° (NNE) 1,732 7.9 55.9°
Drops below altitude 10° 12:40:33 10° 81° (E) 2,487 8.9 56.2°
Sets 12:43:45 0° 97° (E) 3,487 9.6 56.4°
